[[{"header":{"parameterUnit":"m.s-1","parameterCategory":1,"la1":30.2991,"la2":30.254,"lo1":-89.0895,"lo2":-89.0444,"dy":0.0017,"dx":0.0017,"nx":28,"ny":28,"refTime":"2025-04-27T09:00:00:Z","depth":0,"parameterNumber":2,"parameterNumberName":"U-component_of_WINDS"},"data":[0,0,0,0,0,0,0,0,0,0,0,0,0,0,0,0,0,0,0,0,0,0,0,0,0,0,0,0,0,0,0,0,0,0,0,0,0,0,0,0,0,0,0,0,0,0,0,0,0,0,0,0,0,0,0,0,0,0,-1.519,-1.5191,0,-1.5321,-1.5323,-1.5324,-1.535,-1.5349,-1.5348,-1.5347,-1.5485,-1.5489,-1.5494,0,0,0,0,0,0,0,0,0,0,0,0,0,-1.4964,-1.4968,-1.519,-1.5191,-1.5193,-1.5321,-1.5323,-1.5325,-1.5351,-1.5349,-1.5348,-1.5347,-1.5483,-1.5489,-1.5494,0,0,0,0,0,0,0,0,0,0,0,0,0,-1.5076,-1.497,-1.5189,-1.5221,-1.5225,-1.5321,-1.5323,-1.5325,-1.5351,-1.5349,-1.5348,-1.5346,-1.5482,-1.5488,-1.5495,-1.5569,0,0,-1.5516,-1.5519,0,0,0,0,0,0,0,0,-1.5069,-1.5084,-1.5215,-1.5219,-1.5224,-1.5318,-1.5294,-1.5407,-1.5351,-1.5303,-1.5347,-1.5346,-1.5431,-1.5442,-1.547,-1.5575,-1.5581,-1.5517,-1.5521,-1.5524,-1.5526,0,0,0,0,0,0,0,-1.5062,-1.5079,-1.5242,-1.5217,-1.5222,-1.523,-1.5244,-1.5315,-1.5374,-1.5307,-1.531,-1.5325,-1.5433,-1.5463,-1.5473,-1.5583,-1.5517,-1.5523,-1.5527,-1.553,-1.5757,-1.5759,0,0,0,0,0,0,-1.5048,-1.5072,-1.5238,-1.5246,-1.5141,-1.5235,-1.5251,-1.5289,-1.5373,-1.5385,-1.5326,-1.5325,-1.5452,-1.5465,-1.5478,-1.5571,-1.5524,-1.5531,-1.5535,-1.5755,-1.5757,-1.5759,0,0,0,0,0,0,-1.5043,-1.5062,-1.5232,-1.516,-1.5182,-1.5241,-1.5284,-1.5293,-1.5323,-1.5387,-1.5398,-1.5346,-1.5451,-1.5469,-1.5546,-1.5576,-1.5534,-1.554,-1.5753,-1.5756,-1.5758,-1.5755,0,0,0,0,0,0,-1.5036,-1.506,-1.5088,-1.516,-1.5185,-1.5297,-1.5285,-1.5296,-1.5334,-1.5335,-1.5409,-1.542,-1.5452,-1.5536,-1.5553,-1.5585,-1.5545,-1.575,-1.5754,-1.5757,-1.5753,-1.5758,-1.5762,0,0,0,0,0,-1.5028,-1.5083,-1.5089,-1.5109,-1.5221,-1.5299,-1.5313,-1.5348,-1.5337,-1.5366,-1.5407,-1.5417,-1.557,-1.5543,-1.5563,-1.5597,-1.5749,-1.5753,-1.5757,-1.5751,-1.5757,-1.5762,0,0,0,0,0,0,-1.5014,-1.5092,-1.5101,-1.518,-1.5232,-1.5303,-1.534,-1.5353,-1.541,-1.5409,-1.545,-1.5467,-1.5542,-1.5578,-1.5547,-1.5673,-1.5659,-1.5667,-1.5647,-1.5653,-1.5658,-1.5648,-1.5551,0,0,0,0,0,-1.5019,-1.5074,-1.5141,-1.5204,-1.523,-1.5281,-1.5316,-1.5338,-1.5394,-1.5417,-1.5464,-1.5519,-1.558,-1.5618,-1.5678,-1.5758,-1.5775,-1.5792,-1.5796,-1.5799,-1.5806,-1.5852,-1.5861,-1.5773,-1.5773,-1.5773,0,0,-1.5032,-1.5082,-1.5115,-1.5203,-1.5246,-1.5303,-1.5299,-1.536,-1.5403,-1.5426,-1.5502,-1.5539,-1.5603,-1.5683,-1.5721,-1.5715,-1.5834,-1.5805,-1.5807,-1.5812,-1.5858,-1.5866,-1.5873,-1.5776,-1.5775,-1.5775,0,0,-1.5085,-1.5128,-1.5186,-1.5229,-1.5294,-1.5327,-1.5341,-1.541,-1.5435,-1.5512,-1.5531,-1.5584,-1.5687,-1.5732,-1.5768,-1.5839,-1.5851,-1.5857,-1.588,-1.5925,-1.5931,-1.5938,-1.5964,-1.5972,-1.5864,-1.5864,-1.5864,0,-1.5093,-1.5179,-1.5214,-1.5274,-1.5313,-1.5336,-1.5395,-1.5436,-1.5517,-1.5544,-1.5536,-1.5666,-1.5711,-1.5802,-1.582,-1.5848,-1.5866,-1.5849,-1.5927,-1.5934,-1.5941,-1.5966,-1.5975,-1.5864,-1.5864,-1.5864,-1.5864,0,-1.5186,-1.5246,-1.5285,-1.5362,-1.5405,-1.5464,-1.551,-1.5549,-1.5568,-1.5602,-1.5681,-1.5736,-1.5807,-1.583,-1.5849,-1.5924,-1.5919,-1.5919,-1.5905,-1.5949,-1.5973,-1.5983,-1.5865,-1.5865,-1.5865,-1.5864,0,0,-1.5233,-1.5329,-1.5343,-1.5378,-1.5452,-1.55,-1.5561,-1.5629,-1.5663,-1.5718,-1.5771,-1.5858,-1.5859,-1.59,-1.5925,-1.5964,-1.6018,-1.596,-1.5962,-1.5969,-1.6105,-1.6104,-1.6115,-1.6026,-1.6028,-1.6029,-1.6099,0,-1.5295,-1.5403,-1.5437,-1.5528,-1.5584,-1.5607,-1.5661,-1.5712,-1.5746,-1.58,-1.5838,-1.5899,-1.5895,-1.592,-1.596,-1.6002,-1.6045,-1.5998,-1.6076,-1.6079,-1.606,-1.6127,-1.6127,-1.6191,-1.6109,-1.6111,-1.6112,0,-1.5382,-1.5438,-1.5534,-1.5602,-1.5627,-1.5674,-1.574,-1.579,-1.585,-1.5872,-1.5918,-1.594,-1.6006,-1.5988,-1.608,-1.6047,-1.6081,-1.6107,-1.611,-1.6119,-1.6098,-1.6139,-1.6212,-1.6221,-1.6127,-1.6126,-1.6125,0,-1.5407,-1.5507,-1.5578,-1.5608,-1.5688,-1.572,-1.5756,-1.5814,-1.5853,-1.5911,-1.5937,-1.6002,-1.6038,-1.6089,-1.6128,-1.6111,-1.6217,-1.6202,-1.6238,-1.6237,-1.626,-1.6258,-1.634,-1.6281,-1.6281,-1.6281,-1.6281,0,-1.5473,-1.5531,-1.559,-1.5634,-1.57,-1.5739,-1.5804,-1.5841,-1.5892,-1.5944,-1.5968,-1.6017,-1.6065,-1.6121,-1.6152,-1.6224,-1.624,-1.6261,-1.6268,-1.6259,-1.6256,-1.6282,-1.6279,-1.6283,-1.6283,-1.6282,-1.6282,0,-1.5513,-1.5554,-1.5633,-1.5702,-1.5721,-1.5767,-1.5827,-1.5871,-1.5906,-1.5971,-1.5989,-1.6045,-1.6111,-1.6155,-1.624,-1.6261,-1.634,-1.6347,-1.632,-1.6323,-1.6357,-1.6353,-1.6459,-1.6475,-1.6405,-1.6405,-1.6406,0,-1.5552,-1.5597,-1.5671,-1.5707,-1.5742,-1.58,-1.584,-1.588,-1.5921,-1.5993,-1.6028,-1.6096,-1.6153,-1.6258,-1.6307,-1.6372,-1.6381,-1.6413,-1.6391,-1.638,-1.6382,-1.6379,-1.6384,-1.6417,-1.6418,-1.6418,-1.6418,0,-1.5618,-1.5636,-1.5692,-1.5756,-1.5803,-1.5855,-1.5908,-1.5936,-1.5986,-1.6031,-1.6099,-1.6142,-1.6229,-1.6297,-1.6367,-1.6404,-1.642,-1.6425,-1.6437,-1.6428,-1.641,-1.6421,-1.633,-1.6422,-1.6422,-1.6422,-1.6422,-1.6421,-1.5659,-1.5701,-1.5759,-1.5821,-1.5865,-1.5913,-1.5958,-1.5998,-1.6055,-1.6128,-1.6149,-1.622,-1.6279,-1.6375,-1.6414,-1.6471,-1.6468,-1.6485,-1.6489,-1.6493,-1.6493,-1.6401,-1.6484,-1.6484,-1.6484,-1.6484,-1.6484,0,-1.5727,-1.5765,-1.5822,-1.5894,-1.5943,-1.5953,-1.6012,-1.6052,-1.6114,-1.6168,-1.6223,-1.6301,-1.6367,-1.6421,-1.6489,-1.6524,-1.6533,-1.6541,-1.6539,-1.6547,-1.6492,-1.6475,-1.6532,-1.6532,-1.6532,-1.6532,-1.6532,-1.6532,-1.5768,-1.5839,-1.5864,-1.5957,-1.5996,-1.6065,-1.6097,-1.6143,-1.6186,-1.6272,-1.6326,-1.6361,-1.6415,-1.6487,-1.6548,-1.6563,-1.6587,-1.6593,-1.6609,-1.6557,-1.6551,-1.6546,-1.653,-1.6598,-1.6598,-1.666,-1.666,-1.6661]},{"header":{"parameterUnit":"m.s-1","parameterCategory":1,"la1":30.2991,"la2":30.254,"lo1":-89.0895,"lo2":-89.0444,"dy":0.0017,"dx":0.0017,"nx":28,"ny":28,"refTime":"2025-04-27T09:00:00:Z","depth":0,"parameterNumber":3,"parameterNumberName":"V-component_of_WINDS"},"data":[0,0,0,0,0,0,0,0,0,0,0,0,0,0,0,0,0,0,0,0,0,0,0,0,0,0,0,0,0,0,0,0,0,0,0,0,0,0,0,0,0,0,0,0,0,0,0,0,0,0,0,0,0,0,0,0,0,0,2.5281,2.5281,0,2.5322,2.5322,2.5323,2.5301,2.53,2.5299,2.5298,2.5336,2.5338,2.534,0,0,0,0,0,0,0,0,0,0,0,0,0,2.518,2.5182,2.5281,2.5281,2.5282,2.5322,2.5322,2.5323,2.5301,2.53,2.5298,2.5297,2.5335,2.5338,2.534,0,0,0,0,0,0,0,0,0,0,0,0,0,2.5223,2.5183,2.5281,2.5276,2.5276,2.5322,2.5322,2.5323,2.5301,2.53,2.5298,2.5297,2.5335,2.5338,2.5341,2.5392,0,0,2.535,2.5351,0,0,0,0,0,0,0,0,2.522,2.5226,2.5276,2.5276,2.5276,2.5305,2.5301,2.5346,2.5302,2.5292,2.5298,2.5296,2.5327,2.533,2.5341,2.5394,2.5396,2.535,2.5352,2.5353,2.5354,0,0,0,0,0,0,0,2.5217,2.5224,2.5297,2.5277,2.5277,2.527,2.5275,2.5309,2.5318,2.5292,2.5291,2.5296,2.5326,2.5339,2.5342,2.5396,2.535,2.5353,2.5355,2.5356,2.5493,2.5495,0,0,0,0,0,0,2.5215,2.5222,2.5296,2.5298,2.5244,2.5274,2.5278,2.5297,2.5317,2.5319,2.5298,2.5295,2.5334,2.5339,2.5343,2.5405,2.5353,2.5356,2.5358,2.5492,2.5494,2.5496,0,0,0,0,0,0,2.5213,2.5222,2.5294,2.526,2.5269,2.5277,2.5298,2.5299,2.5311,2.5321,2.5322,2.5309,2.5333,2.5339,2.5381,2.5406,2.5358,2.536,2.5489,2.5492,2.5495,2.553,0,0,0,0,0,0,2.521,2.5221,2.5242,2.5261,2.527,2.5332,2.53,2.5301,2.5317,2.5314,2.5332,2.5333,2.5332,2.5376,2.5384,2.541,2.5363,2.5487,2.5491,2.5494,2.5526,2.5533,2.5539,0,0,0,0,0,2.5207,2.5249,2.5243,2.5252,2.5297,2.5333,2.5339,2.5337,2.5319,2.5339,2.5346,2.5333,2.5403,2.5381,2.5389,2.5416,2.5485,2.549,2.5494,2.5523,2.5532,2.5539,0,0,0,0,0,0,2.5232,2.5252,2.5245,2.5295,2.5313,2.5329,2.5355,2.5347,2.5369,2.5365,2.5361,2.5366,2.5409,2.5417,2.5392,2.5467,2.5441,2.5447,2.5461,2.5469,2.5475,2.5473,2.5365,0,0,0,0,0,2.5244,2.5273,2.5288,2.5331,2.534,2.5346,2.5362,2.536,2.5377,2.5384,2.5394,2.5411,2.5436,2.5453,2.5477,2.5527,2.5531,2.555,2.5557,2.5562,2.5567,2.5594,2.5603,2.5509,2.5509,2.5509,0,0,2.5268,2.5282,2.5301,2.5336,2.535,2.5379,2.5353,2.5385,2.5406,2.5389,2.5429,2.5436,2.5455,2.5501,2.5522,2.5509,2.5594,2.5567,2.5571,2.5574,2.5599,2.5608,2.5616,2.5512,2.5511,2.5511,0,0,2.5327,2.5341,2.5378,2.5392,2.5413,2.5417,2.5426,2.5444,2.5449,2.5489,2.5477,2.5502,2.5546,2.556,2.5572,2.5637,2.5625,2.5644,2.5678,2.5705,2.5712,2.5719,2.5741,2.575,2.565,2.565,2.565,0,2.5354,2.5399,2.5398,2.5431,2.5447,2.5434,2.5471,2.5485,2.5512,2.5523,2.5508,2.5564,2.5575,2.5624,2.564,2.5651,2.566,2.5642,2.5711,2.5718,2.5724,2.5746,2.5754,2.5652,2.5652,2.5651,2.5651,0,2.543,2.5462,2.5489,2.5517,2.5536,2.5571,2.5575,2.5594,2.559,2.5595,2.5635,2.5649,2.5675,2.5687,2.5683,2.5735,2.5727,2.5712,2.5685,2.5735,2.5755,2.5764,2.5655,2.5654,2.5653,2.5653,0,0,2.5506,2.5534,2.5544,2.5557,2.5579,2.5603,2.5637,2.5664,2.568,2.57,2.5728,2.5766,2.5752,2.5767,2.5764,2.5787,2.5837,2.5769,2.577,2.5781,2.5896,2.5907,2.5916,2.583,2.5831,2.5833,2.5894,0,2.5566,2.5628,2.5628,2.5684,2.5712,2.5701,2.573,2.5746,2.5752,2.5776,2.5781,2.5809,2.5789,2.5797,2.582,2.5826,2.586,2.5822,2.5855,2.5856,2.5851,2.5927,2.5939,2.5996,2.5902,2.5903,2.5904,0,2.5645,2.5668,2.5728,2.5746,2.5758,2.5785,2.581,2.5833,2.5851,2.5854,2.587,2.5864,2.5897,2.587,2.5916,2.589,2.5904,2.5909,2.5911,2.5914,2.5883,2.5932,2.6014,2.6023,2.5917,2.5916,2.5915,0,2.5694,2.574,2.5782,2.5793,2.5816,2.5835,2.5845,2.5861,2.5878,2.5899,2.591,2.5934,2.5948,2.5966,2.5967,2.5947,2.6013,2.5986,2.6015,2.6015,2.6029,2.6029,2.6115,2.6038,2.6038,2.6038,2.6038,0,2.5762,2.5798,2.5804,2.583,2.587,2.587,2.5909,2.5917,2.5932,2.5958,2.5949,2.5973,2.5972,2.5997,2.5997,2.6035,2.6041,2.6043,2.6042,2.6044,2.6043,2.6052,2.6048,2.604,2.604,2.6039,2.6039,0,2.5824,2.5829,2.5874,2.5892,2.5897,2.5926,2.5941,2.5965,2.597,2.6003,2.601,2.6017,2.6046,2.6048,2.608,2.608,2.6126,2.6121,2.6121,2.612,2.6149,2.6146,2.6245,2.6258,2.6172,2.6173,2.6174,0,2.5866,2.5894,2.5916,2.5933,2.5945,2.5973,2.599,2.599,2.6008,2.6031,2.6052,2.608,2.6102,2.6147,2.6155,2.6179,2.6175,2.6208,2.6178,2.6179,2.6175,2.6174,2.6176,2.6213,2.6214,2.6215,2.6215,0,2.5941,2.5943,2.5969,2.5995,2.6016,2.6037,2.6056,2.6071,2.6073,2.6094,2.6123,2.6141,2.6174,2.6202,2.6226,2.6235,2.6226,2.6225,2.6233,2.6234,2.6233,2.6234,2.6136,2.6222,2.6222,2.6221,2.6221,2.6221,2.5995,2.6019,2.6039,2.6067,2.6082,2.6101,2.6124,2.6132,2.6157,2.6186,2.6184,2.6216,2.6233,2.6265,2.6276,2.6301,2.6289,2.6301,2.6304,2.6307,2.631,2.6229,2.6305,2.6305,2.6305,2.6304,2.6304,0,2.607,2.6082,2.6108,2.6136,2.6159,2.6149,2.617,2.6189,2.6218,2.6236,2.6258,2.6292,2.6318,2.6328,2.6353,2.6371,2.6368,2.6378,2.6377,2.6379,2.6319,2.6309,2.6381,2.6381,2.6381,2.6381,2.6381,2.6381,2.6111,2.6152,2.6156,2.6204,2.6215,2.6248,2.6261,2.6277,2.6291,2.633,2.6352,2.6359,2.6373,2.6399,2.6423,2.6425,2.6435,2.6447,2.6447,2.6391,2.6383,2.6376,2.6367,2.6449,2.6449,2.6505,2.6506,2.6506]}]]